KK6DR Weather Reports


time (UTC)temp
F
wind
direction
speed
knots
gust
knots
rain 1hr
in
rain 24hr
in
rain mn
in
humidity
%
barometer
mb
20260505111605 52 221 0.0 2.6 0.00 0.03 0.01 92 1014.9
20260505110105 52 0 0.9 2.6 0.00 0.03 0.01 92 1015.0
20260505101604 52 144 1.7 4.3 0.00 0.03 0.01 92 1014.9
20260505100106 52 0 2.6 6.1 0.00 0.03 0.01 92 1014.9
20260505094602 52 146 0.9 6.1 0.00 0.03 0.01 92 1014.8
20260505093058 52 178 1.7 6.1 0.00 0.03 0.01 91 1014.9
20260505091555 52 178 0.9 4.3 0.00 0.03 0.01 91 1014.9
20260505090058 52 157 1.7 6.1 0.01 0.03 0.01 91 1014.6
20260505084555 53 205 2.6 6.1 0.01 0.03 0.01 91 1014.7
20260505083105 53 165 0.9 3.5 0.01 0.03 0.01 91 1014.6
20260505081555 53 0 0.9 8.7 0.01 0.03 0.01 91 1014.4
20260505080054 53 124 0.9 3.5 0.00 0.02 0.00 91 1014.4
20260505074552 53 196 0.9 3.5 0.00 0.02 0.00 91 1014.4
20260505073055 53 165 0.9 4.3 0.00 0.02 0.00 91 1014.4
20260505071559 53 193 1.7 4.3 0.00 0.02 0.00 91 1014.4
20260505064557 53 137 1.7 7.0 0.01 0.02 0.02 90 1014.5
20260505063052 53 207 2.6 7.8 0.01 0.02 0.02 90 1014.6
20260505061613 53 178 0.9 2.6 0.01 0.02 0.02 90 1014.5
20260505060059 53 221 0.0 2.6 0.00 0.01 0.01 90 1014.6
20260505054556 53 160 0.9 3.5 0.00 0.01 0.01 90 1014.7
20260505053057 53 144 0.9 4.3 0.00 0.01 0.01 90 1014.6
20260505051553 54 144 0.9 3.5 0.00 0.01 0.01 89 1014.6
20260505041601 54 0 1.7 4.3 0.00 0.01 0.01 88 1014.4
20260505034550 54 200 1.7 7.8 0.00 0.01 0.01 87 1014.1
20260505033101 55 198 2.6 7.8 0.00 0.01 0.01 85 1013.9
20260505031556 55 163 0.9 3.5 0.00 0.01 0.01 84 1013.9
20260505030052 55 144 0.9 5.2 0.00 0.01 0.01 84 1013.7
20260505024554 55 163 0.9 4.3 0.00 0.01 0.01 84 1013.7
20260505023052 56 198 1.7 6.1 0.00 0.01 0.01 83 1013.7
20260505021552 56 202 2.6 7.0 0.00 0.01 0.01 82 1013.8
20260505020057 56 205 2.6 6.1 0.00 0.01 0.01 81 1013.7
20260505014555 57 234 2.6 8.7 0.00 0.01 0.01 81 1013.7
20260505013053 57 205 1.7 6.1 0.00 0.01 0.01 79 1014.0
20260505011551 57 193 2.6 7.0 0.00 0.01 0.01 79 1014.0
20260505010103 57 213 3.5 8.7 0.00 0.01 0.01 78 1014.1
20260505004557 58 163 3.5 8.7 0.00 0.01 0.01 78 1014.1
20260505003053 58 209 6.1 10.4 0.00 0.01 0.01 77 1014.2
20260505001554 59 183 4.3 10.4 0.00 0.01 0.01 77 1014.3
20260505000106 59 205 3.5 9.6 0.00 0.01 0.01 76 1014.4
20260504234604 60 216 4.3 12.2 0.00 0.01 0.01 75 1014.3
20260504233051 60 183 6.1 12.2 0.00 0.01 0.01 75 1014.3
20260504231556 59 208 5.2 12.2 0.00 0.01 0.01 75 1014.3
20260504230055 59 196 6.1 11.3 0.00 0.01 0.01 76 1014.3
20260504224556 60 178 4.3 12.2 0.00 0.01 0.01 75 1014.3
20260504223056 61 144 5.2 12.2 0.00 0.01 0.01 74 1014.5
20260504221559 62 184 5.2 13.0 0.00 0.01 0.01 72 1014.6
20260504220103 60 155 4.3 11.3 0.00 0.01 0.01 75 1014.7
20260504214558 60 208 6.1 12.2 0.00 0.01 0.01 76 1014.7
20260504213112 60 221 5.2 13.0 0.00 0.01 0.01 76 1014.8
20260504211557 60 261 5.2 13.0 0.00 0.01 0.01 76 1014.7
20260504210105 61 225 5.2 13.0 0.00 0.01 0.01 74 1014.8
20260504204603 61 191 4.3 9.6 0.00 0.01 0.01 76 1014.9
20260504203057 60 198 4.3 9.6 0.00 0.01 0.01 78 1015.0
20260504201553 59 221 3.5 10.4 0.00 0.01 0.01 79 1015.1
20260504200055 58 153 3.5 10.4 0.00 0.01 0.01 82 1015.0
20260504194559 57 244 4.3 10.4 0.00 0.01 0.01 82 1014.9
20260504193112 57 200 4.3 13.0 0.00 0.01 0.01 84 1014.7
20260504191555 57 221 5.2 12.2 0.00 0.01 0.01 85 1014.7
20260504190106 57 207 3.5 9.6 0.00 0.01 0.01 85 1014.8
20260504184554 57 205 2.6 9.6 0.00 0.01 0.01 86 1014.7
20260504183101 56 211 4.3 10.4 0.00 0.01 0.01 87 1014.6
20260504181557 56 182 5.2 11.3 0.00 0.01 0.01 89 1014.5
20260504180137 56 223 4.3 9.6 0.00 0.01 0.01 89 1014.5
20260504174600 56 210 2.6 8.7 0.00 0.01 0.01 90 1014.5
20260504173057 56 219 2.6 9.6 0.00 0.01 0.01 90 1014.4
20260504171601 55 193 4.3 8.7 0.00 0.01 0.01 90 1014.3
20260504160105 55 238 2.6 6.1 0.00 0.01 0.01 92 1014.1
20260504120108 52 194 1.7 7.8 0.01 0.01 0.01 92 1013.0